[[{"header":{"parameterUnit":"m.s-1","parameterCategory":1,"la1":30.2991,"la2":30.254,"lo1":-89.0895,"lo2":-89.0444,"dy":0.0017,"dx":0.0017,"nx":28,"ny":28,"refTime":"2024-08-14T09:00:00:Z","depth":0,"parameterNumber":2,"parameterNumberName":"U-component_of_WINDS"},"data":[0,0,0,0,0,0,0,0,0,0,0,0,0,0,0,0,0,0,0,0,0,0,0,0,0,0,0,0,0,0,0,0,0,0,0,0,0,0,0,0,0,0,0,0,0,0,0,0,0,0,0,0,0,0,0,0,0,0,-2.4556,-2.4557,0,-2.4662,-2.4664,-2.4665,-2.471,-2.471,-2.4709,-2.4709,-2.4812,-2.4815,-2.4818,0,0,0,0,0,0,0,0,0,0,0,0,0,-2.4386,-2.4389,-2.4556,-2.4557,-2.4558,-2.4662,-2.4664,-2.4665,-2.471,-2.471,-2.4709,-2.4709,-2.4811,-2.4814,-2.4818,0,0,0,0,0,0,0,0,0,0,0,0,0,-2.4473,-2.439,-2.4555,-2.4593,-2.4598,-2.4662,-2.4664,-2.4666,-2.471,-2.471,-2.4709,-2.4709,-2.481,-2.4814,-2.4818,-2.4851,0,0,-2.4832,-2.4834,0,0,0,0,0,0,0,0,-2.4468,-2.4479,-2.4586,-2.4591,-2.4596,-2.4673,-2.4642,-2.4727,-2.471,-2.4667,-2.4709,-2.4709,-2.4765,-2.4773,-2.4794,-2.4855,-2.486,-2.4832,-2.4835,-2.4837,-2.4838,0,0,0,0,0,0,0,-2.4462,-2.4474,-2.4598,-2.4588,-2.4594,-2.4603,-2.4615,-2.4658,-2.4716,-2.4671,-2.4674,-2.4687,-2.4768,-2.4789,-2.4796,-2.4861,-2.4832,-2.4836,-2.4838,-2.484,-2.4957,-2.4958,0,0,0,0,0,0,-2.445,-2.4469,-2.4594,-2.4601,-2.453,-2.4607,-2.462,-2.4648,-2.4716,-2.4726,-2.4687,-2.4688,-2.4782,-2.4791,-2.48,-2.4844,-2.4836,-2.4841,-2.4843,-2.4957,-2.4957,-2.4958,0,0,0,0,0,0,-2.4446,-2.4461,-2.459,-2.4536,-2.4553,-2.461,-2.4641,-2.465,-2.4672,-2.4728,-2.4738,-2.4699,-2.4782,-2.4794,-2.4839,-2.4848,-2.4843,-2.4846,-2.4956,-2.4957,-2.4958,-2.493,0,0,0,0,0,0,-2.4441,-2.4459,-2.4473,-2.4536,-2.4556,-2.4628,-2.4642,-2.4653,-2.468,-2.4683,-2.4742,-2.4751,-2.4783,-2.4832,-2.4843,-2.4854,-2.485,-2.4956,-2.4957,-2.4957,-2.4931,-2.493,-2.493,0,0,0,0,0,-2.4435,-2.4459,-2.4473,-2.4488,-2.4575,-2.4628,-2.4639,-2.4678,-2.4681,-2.4695,-2.4731,-2.4749,-2.4846,-2.4836,-2.4849,-2.4861,-2.4955,-2.4956,-2.4957,-2.4931,-2.493,-2.493,0,0,0,0,0,0,-2.4392,-2.4468,-2.4484,-2.453,-2.4573,-2.4636,-2.4654,-2.4675,-2.4716,-2.4717,-2.4761,-2.4773,-2.4814,-2.4842,-2.4831,-2.4897,-2.4902,-2.4906,-2.4877,-2.4877,-2.4877,-2.4868,-2.4854,0,0,0,0,0,-2.4388,-2.4427,-2.4491,-2.4525,-2.4546,-2.4596,-2.4621,-2.4647,-2.4692,-2.471,-2.4749,-2.4791,-2.4831,-2.4855,-2.4895,-2.4936,-2.4949,-2.4951,-2.495,-2.4949,-2.4951,-2.4976,-2.4978,-2.4962,-2.4962,-2.4962,0,0,-2.438,-2.4426,-2.4448,-2.4517,-2.4554,-2.4592,-2.4611,-2.465,-2.4679,-2.4715,-2.476,-2.4791,-2.484,-2.4883,-2.4904,-2.4908,-2.496,-2.4951,-2.495,-2.4952,-2.4978,-2.4979,-2.498,-2.4962,-2.4962,-2.4962,0,0,-2.4384,-2.4424,-2.4457,-2.4494,-2.455,-2.4584,-2.4592,-2.4653,-2.4676,-2.4723,-2.4752,-2.4786,-2.4853,-2.4888,-2.4914,-2.4935,-2.4954,-2.4947,-2.4943,-2.4967,-2.4968,-2.497,-2.4978,-2.498,-2.4949,-2.4949,-2.4949,0,-2.4366,-2.4427,-2.4471,-2.451,-2.454,-2.4578,-2.4612,-2.4645,-2.471,-2.4729,-2.4733,-2.482,-2.4856,-2.4908,-2.4914,-2.4934,-2.4944,-2.4939,-2.4965,-2.4967,-2.4969,-2.4977,-2.4979,-2.4948,-2.4948,-2.4948,-2.4948,0,-2.4402,-2.4444,-2.4464,-2.453,-2.4562,-2.4598,-2.4646,-2.4673,-2.4698,-2.4731,-2.4779,-2.4824,-2.4874,-2.4889,-2.4911,-2.4945,-2.4946,-2.4957,-2.4962,-2.4968,-2.4977,-2.498,-2.4946,-2.4947,-2.4947,-2.4947,0,0,-2.438,-2.4472,-2.4479,-2.451,-2.4576,-2.4608,-2.4646,-2.4698,-2.4721,-2.4765,-2.4797,-2.4856,-2.4867,-2.4897,-2.4924,-2.4945,-2.496,-2.4954,-2.4956,-2.4953,-2.5001,-2.4992,-2.4995,-2.4974,-2.4975,-2.4975,-2.4997,0,-2.4393,-2.4465,-2.4508,-2.4562,-2.4601,-2.464,-2.4673,-2.4716,-2.4749,-2.4786,-2.4822,-2.4863,-2.4875,-2.4894,-2.4916,-2.4954,-2.497,-2.4953,-2.5003,-2.5005,-2.4989,-2.4999,-2.4989,-2.5007,-2.5,-2.5001,-2.5001,0,-2.4418,-2.4465,-2.4524,-2.4588,-2.4606,-2.4635,-2.4688,-2.4723,-2.4773,-2.4796,-2.4831,-2.4859,-2.49,-2.4904,-2.4961,-2.4948,-2.4972,-2.4993,-2.4995,-2.5,-2.5002,-2.5004,-2.5014,-2.5016,-2.5007,-2.5006,-2.5006,0,-2.4396,-2.4474,-2.452,-2.4545,-2.4621,-2.4641,-2.4673,-2.4723,-2.4753,-2.4798,-2.4817,-2.4866,-2.4892,-2.4928,-2.4969,-2.4967,-2.5022,-2.5028,-2.5041,-2.504,-2.5049,-2.5048,-2.5062,-2.5065,-2.5065,-2.5065,-2.5065,0,-2.4406,-2.444,-2.4511,-2.4539,-2.4579,-2.4628,-2.4665,-2.47,-2.4746,-2.478,-2.4816,-2.4847,-2.4899,-2.4937,-2.4969,-2.5011,-2.5023,-2.5041,-2.5049,-2.5038,-2.5036,-2.5053,-2.5052,-2.5066,-2.5066,-2.5066,-2.5065,0,-2.4387,-2.4436,-2.4489,-2.4558,-2.4576,-2.4603,-2.4661,-2.4689,-2.4726,-2.4769,-2.4782,-2.4838,-2.4885,-2.493,-2.4991,-2.5012,-2.5055,-2.5065,-2.5039,-2.5043,-2.5053,-2.5051,-2.5078,-2.5084,-2.5083,-2.5083,-2.5083,0,-2.439,-2.4418,-2.4492,-2.4519,-2.4551,-2.4594,-2.4626,-2.4675,-2.4705,-2.4767,-2.4788,-2.4838,-2.488,-2.4953,-2.4998,-2.5046,-2.5057,-2.5064,-2.5064,-2.5053,-2.5057,-2.5055,-2.5058,-2.5062,-2.5062,-2.5062,-2.5061,0,-2.439,-2.4414,-2.4459,-2.4513,-2.455,-2.4595,-2.464,-2.466,-2.4717,-2.475,-2.48,-2.4833,-2.4898,-2.4947,-2.5001,-2.5032,-2.5056,-2.5062,-2.5067,-2.5055,-2.5038,-2.5048,-2.5035,-2.506,-2.506,-2.506,-2.506,-2.506,-2.4382,-2.441,-2.4467,-2.4516,-2.4556,-2.4598,-2.4629,-2.4671,-2.4714,-2.4773,-2.4799,-2.4849,-2.49,-2.4975,-2.5007,-2.5046,-2.5052,-2.5059,-2.5061,-2.5062,-2.506,-2.5033,-2.5056,-2.5056,-2.5056,-2.5056,-2.5057,0,-2.4384,-2.4423,-2.4469,-2.4533,-2.4572,-2.4595,-2.4647,-2.4677,-2.4722,-2.4769,-2.4812,-2.4869,-2.4918,-2.4968,-2.502,-2.5042,-2.5054,-2.5053,-2.5051,-2.5058,-2.5052,-2.5042,-2.5043,-2.5043,-2.5043,-2.5043,-2.5043,-2.5043,-2.4389,-2.4438,-2.4469,-2.4537,-2.4576,-2.4628,-2.4656,-2.4695,-2.4733,-2.4797,-2.4839,-2.4873,-2.4921,-2.4977,-2.5022,-2.5036,-2.5053,-2.5049,-2.5065,-2.5058,-2.5059,-2.5059,-2.5051,-2.5052,-2.5052,-2.5069,-2.5069,-2.5069]},{"header":{"parameterUnit":"m.s-1","parameterCategory":1,"la1":30.2991,"la2":30.254,"lo1":-89.0895,"lo2":-89.0444,"dy":0.0017,"dx":0.0017,"nx":28,"ny":28,"refTime":"2024-08-14T09:00:00:Z","depth":0,"parameterNumber":3,"parameterNumberName":"V-component_of_WINDS"},"data":[0,0,0,0,0,0,0,0,0,0,0,0,0,0,0,0,0,0,0,0,0,0,0,0,0,0,0,0,0,0,0,0,0,0,0,0,0,0,0,0,0,0,0,0,0,0,0,0,0,0,0,0,0,0,0,0,0,0,0.9362,0.9363,0,0.9443,0.9444,0.9444,0.9514,0.9515,0.9516,0.9516,0.9594,0.9595,0.9597,0,0,0,0,0,0,0,0,0,0,0,0,0,0.9264,0.9266,0.9362,0.9363,0.9364,0.9442,0.9444,0.9445,0.9514,0.9515,0.9516,0.9517,0.9594,0.9595,0.9597,0,0,0,0,0,0,0,0,0,0,0,0,0,0.9322,0.9266,0.9361,0.9408,0.9413,0.9442,0.9444,0.9445,0.9514,0.9515,0.9516,0.9517,0.9593,0.9595,0.9597,0.9586,0,0,0.9603,0.9604,0,0,0,0,0,0,0,0,0.9318,0.9325,0.94,0.9405,0.941,0.947,0.9438,0.9492,0.9513,0.9475,0.9516,0.9518,0.9551,0.9557,0.9569,0.9589,0.9592,0.9603,0.9605,0.9605,0.9606,0,0,0,0,0,0,0,0.9314,0.9322,0.9394,0.9401,0.9407,0.9424,0.9433,0.9448,0.9505,0.9479,0.9484,0.9493,0.9554,0.9567,0.9572,0.9594,0.9603,0.9605,0.9606,0.9607,0.961,0.9609,0,0,0,0,0,0,0.9304,0.9318,0.9391,0.9396,0.9367,0.9424,0.9435,0.9449,0.9505,0.9515,0.9492,0.9496,0.9563,0.9569,0.9575,0.9566,0.9605,0.9607,0.9608,0.9611,0.961,0.9609,0,0,0,0,0,0,0.9301,0.931,0.9388,0.9359,0.937,0.9425,0.944,0.945,0.9463,0.9515,0.9526,0.9494,0.9564,0.9572,0.9583,0.9569,0.9608,0.961,0.9612,0.9611,0.9609,0.9546,0,0,0,0,0,0,0.9298,0.9308,0.9305,0.9358,0.9371,0.9395,0.9439,0.9451,0.9467,0.9473,0.9521,0.953,0.9566,0.958,0.9585,0.9573,0.9612,0.9614,0.9612,0.961,0.955,0.9543,0.9537,0,0,0,0,0,0.9295,0.9282,0.9304,0.9313,0.9368,0.9394,0.9402,0.9445,0.9466,0.9462,0.9496,0.9528,0.957,0.958,0.9587,0.9575,0.9615,0.9612,0.961,0.9553,0.9544,0.9537,0,0,0,0,0,0,0.9223,0.929,0.9315,0.932,0.9351,0.9406,0.9403,0.9434,0.9459,0.9463,0.9515,0.9525,0.953,0.9554,0.9564,0.9568,0.9597,0.9596,0.9551,0.9544,0.9537,0.953,0.9613,0,0,0,0,0,0.9209,0.9226,0.9283,0.9282,0.9296,0.9347,0.936,0.9391,0.9425,0.9437,0.9472,0.9502,0.9523,0.9535,0.9556,0.9555,0.9566,0.955,0.9543,0.9538,0.9535,0.9537,0.953,0.96,0.96,0.96,0,0,0.9178,0.9216,0.9223,0.9268,0.9296,0.9312,0.9357,0.9371,0.9383,0.9439,0.9452,0.9479,0.9517,0.9522,0.9525,0.9541,0.9519,0.9534,0.9529,0.953,0.9534,0.9527,0.9521,0.9599,0.9599,0.9599,0,0,0.9129,0.916,0.9163,0.9191,0.9234,0.9268,0.9269,0.932,0.934,0.9355,0.9398,0.9413,0.9446,0.9472,0.9489,0.9453,0.9483,0.9459,0.9423,0.9424,0.9419,0.9414,0.9401,0.9396,0.9457,0.9457,0.9456,0,0.9084,0.911,0.916,0.9173,0.9191,0.9246,0.9249,0.9273,0.932,0.9331,0.9349,0.9394,0.9423,0.9435,0.9427,0.9439,0.9441,0.9452,0.9416,0.9412,0.9408,0.9396,0.9391,0.9453,0.9454,0.9454,0.9454,0,0.9053,0.9071,0.9068,0.9114,0.9133,0.914,0.9191,0.9204,0.9234,0.9267,0.9281,0.9319,0.9349,0.9355,0.9384,0.9372,0.9381,0.9407,0.9437,0.9397,0.9387,0.9383,0.9448,0.945,0.9451,0.9451,0,0,0.8958,0.9035,0.9033,0.9055,0.9108,0.9122,0.9133,0.9165,0.9175,0.9206,0.9216,0.9245,0.927,0.929,0.9322,0.9323,0.9293,0.935,0.9351,0.9337,0.9282,0.9261,0.9255,0.9315,0.9314,0.9314,0.9279,0,0.8917,0.894,0.8987,0.8995,0.9012,0.9066,0.9076,0.9108,0.914,0.9158,0.9193,0.9212,0.9244,0.9257,0.9261,0.9296,0.9283,0.9299,0.9323,0.9323,0.931,0.925,0.9227,0.9193,0.9275,0.9275,0.9274,0,0.8871,0.8901,0.8912,0.8966,0.8975,0.8982,0.9016,0.9034,0.9073,0.9096,0.9119,0.9156,0.917,0.92,0.9219,0.923,0.9243,0.9262,0.9261,0.9263,0.9295,0.9249,0.9183,0.9177,0.9269,0.9269,0.9269,0,0.88,0.8843,0.8856,0.8873,0.8936,0.8941,0.8967,0.9008,0.9025,0.9055,0.9066,0.9097,0.9113,0.9135,0.9179,0.9197,0.9194,0.9227,0.9212,0.9211,0.9207,0.9206,0.914,0.9218,0.9218,0.9218,0.9218,0,0.8747,0.8751,0.8825,0.8832,0.8839,0.8893,0.8897,0.8929,0.8965,0.8979,0.9027,0.9039,0.9098,0.9116,0.9151,0.9162,0.9169,0.9187,0.9196,0.9182,0.9179,0.9189,0.9192,0.9217,0.9217,0.9217,0.9218,0,0.8667,0.8717,0.8734,0.8794,0.8809,0.8811,0.8862,0.8871,0.8907,0.8924,0.8931,0.8987,0.9011,0.9059,0.9096,0.9119,0.9122,0.9139,0.9109,0.9114,0.9097,0.9097,0.9033,0.9027,0.911,0.9109,0.9108,0,0.863,0.8635,0.8696,0.871,0.8735,0.8757,0.8776,0.883,0.8847,0.8894,0.8897,0.8926,0.8952,0.8989,0.9032,0.9061,0.9078,0.9054,0.9082,0.9068,0.9076,0.9075,0.9076,0.9046,0.9045,0.9044,0.9043,0,0.8558,0.8583,0.8609,0.8644,0.8666,0.8695,0.8727,0.8736,0.8798,0.8815,0.8842,0.8862,0.8902,0.893,0.8966,0.8993,0.9027,0.9035,0.9033,0.9017,0.8999,0.9008,0.909,0.9035,0.9036,0.9036,0.9037,0.9037,0.8497,0.8505,0.855,0.8577,0.8608,0.8638,0.865,0.8689,0.8713,0.8751,0.8782,0.8806,0.8847,0.89,0.8925,0.8944,0.8961,0.8958,0.8957,0.8955,0.8949,0.8998,0.8951,0.8951,0.8952,0.8952,0.8952,0,0.8427,0.846,0.8485,0.853,0.8552,0.8587,0.8625,0.864,0.8662,0.8698,0.8724,0.8756,0.8784,0.8831,0.8863,0.887,0.8887,0.8876,0.8875,0.8881,0.8933,0.8931,0.8862,0.8862,0.8862,0.8862,0.8862,0.8862,0.8392,0.8407,0.8438,0.8469,0.8501,0.8527,0.8546,0.8574,0.8604,0.8638,0.8662,0.8694,0.8734,0.8771,0.8798,0.8811,0.882,0.8804,0.8822,0.8869,0.8877,0.8885,0.8883,0.8806,0.8806,0.8769,0.8768,0.8768]}]]